Regional Weather Roundup
Issued by NWS State College, PA

Home | Current Version | Previous Version | Graphics & Text | Print | Product List | Glossary Off
Versions: 1 2 3 4 5 6 7 8 9 10 11 12 13 14 15 16 17 18 19 20 21 22 23 24 25 26 27 28 29 30 31 32 33 34 35 36 37 38 39 40 41 42 43 44 45 46 47 48 49 50

000
ASUS41 KCTP 290610
RWRCTP

REGIONAL WEATHER ROUNDUP
NATIONAL WEATHER SERVICE STATE COLLEGE PA
200 AM EDT FRI MAY 29 2015

Note: "fair" indicates few or no clouds below 12,000 feet with no
significant weather and/or obstructions to visibility.

* = STATION THAT DOES NOT REPORT PRECIPITATION /E.G. RAIN...SNOW...ETC/
    THUNDER OR FOG.

PAZ002>004-007>009-013>016-020>023-029>032-290700-
WESTERN PENNSYLVANIA

CITY           SKY/WX    TMP DP  RH WIND       PRES   REMARKS
ERIE           CLEAR     63  52  67 SE6       30.23F
MEADVILLE      CLEAR     63  52  67 E6        30.25F
FRANKLIN*      CLEAR     59  52  77 E6        30.27F
NEW CASTLE     FAIR      57  57 100 CALM      30.24F
BEAVER COUNTY  NOT AVBL
BUTLER*        CLEAR     57  54  88 NE5       30.25F
PITTSBURGH INT CLEAR     65  54  67 CALM      30.22F
PITTSBURGH     CLEAR     66  48  52 E3        30.22F
INDIANA*       PTCLDY    61  54  77 CALM      30.29S
LATROBE        CLEAR     59  57  94 CALM      30.25F
WASHINGTON CO* CLEAR     55  54  94 CALM      30.23F
$$

PAZ004>006-010>012-017>019-024>028-033>037-041-042-045-046-049>053-290700-
CENTRAL PENNSYLVANIA

CITY           SKY/WX    TMP DP  RH WIND       PRES   REMARKS
BRADFORD       CLEAR     51  48  89 CALM      30.30F
DUBOIS         CLEAR     59  52  77 E7        30.27F
CLEARFIELD     CLEAR     54  50  86 N6        30.29S
JOHNSTOWN      CLEAR     63  50  62 E5        30.28F
ALTOONA        CLEAR     62  51  67 CALM      30.28S
STATE COLLEGE  CLEAR     60  53  79 CALM      30.28S
WILLIAMSPORT   CLEAR     58  54  86 CALM      30.27S
SELINSGROVE    CLEAR     57  54  89 N3        30.27S
FT INDIANTOWN  CLEAR     66  53  62 NE3       30.27R
CAPITAL CITY   CLEAR     63  55  75 CALM      30.25S
HARRISBURG     PTCLDY    66  56  70 CALM      30.25R
YORK           CLEAR     62  60  93 CALM      30.25S
$$

PAZ038>040-043-044-047-048-054-055-060>062-067>071-290700-
EASTERN PENNSYLVANIA

CITY           SKY/WX    TMP DP  RH WIND       PRES   REMARKS
SCRANTON       CLEAR     58  53  84 E6        30.29S
MOUNT POCONO   CLEAR     58  32  37 N8        30.31R
ALLENTOWN      CLEAR     65  53  65 NE3       30.27R
QUAKERTOWN*    CLEAR     66  54  63 NE3       30.28R
READING        CLEAR     67  51  56 NE3       30.26R
LANCASTER      PTCLDY    67  53  61 E5        30.26R
COATESVILLE    PTCLDY    68  54  60 NE3       30.27S
POTTSTOWN      CLEAR     63  54  72 CALM      30.28R
BLUE BELL      CLEAR     68  54  60 CALM      30.25S
DOYLESTOWN     CLEAR     64  53  67 N5        30.26R
WILLOW GROVE   NOT AVBL
NORTH PHILA    CLEAR     71  51  49 NE9       30.26R
PHILADELPHIA   PTCLDY    73  53  49 NE10      30.24R
$$


USA.gov is the U.S. government's official web portal to all federal, state and local government web resources and services.